Starlink 4358

operational
NORAD ID: 53225 Int'l Des: 2022-084 Owner: SPXS Country: US Constellation: starlink
LEOCIRCULARRETROGRADESSO

关于 Starlink 4358

正在加载描述...

实时位置

正在加载3D地球...

即将过境

高度历史

Altitude vs Time

uPlot chart will show altitude changes over time

两行轨道根数

1 53225U 22084AN 25259.96278152 .00000030 00000-0 69029-5 0 9990
2 53225 97.6024 320.1349 0002333 62.7854 297.3608 15.01261951173256
Epoch: Sep 16, 2025 • Age: 13 hours

当前状态

高度 578.0 km
速度 7.57 km/s
星下点 -38.46°S, 154.06°E
发射日期 Jul 22, 2022
运行时间 3.1 years
类型 internet

技术详情

分类 Payload
质量 297.00 kg
干质量 275.00 kg
总质量 297.00 kg
长度 0.20 m
直径 2.80 m
跨度 9.00 m
形状 Box + pan
制造商 SPXS
平台类型 Starlink
阶段状态 In Orbit
所有者/国家 SPXS/US

大型星座

Loading constellations...